| time (UTC) | temp F | wind direction | speed knots | gust knots | rain 1hr in | rain 24hr in | rain mn in | humidity % | barometer mb |
| 20260505004038 | 77 | 307 | 2.6 | 2.6 | 0.00 | 0.00 | 0.00 | 69 | 1008.8 |
| 20260505003535 | 77 | 122 | 2.6 | 2.6 | 0.00 | 0.00 | 0.00 | 68 | 1008.8 |
| 20260505003032 | 78 | 221 | 2.6 | 4.3 | 0.00 | 0.00 | 0.00 | 67 | 1008.7 |
| 20260505002527 | 78 | 81 | 3.5 | 4.3 | 0.00 | 0.00 | 0.00 | 68 | 1008.6 |
| 20260505002026 | 78 | 223 | 2.6 | 2.6 | 0.00 | 0.00 | 0.00 | 68 | 1008.8 |
| 20260505001523 | 78 | 6 | 2.6 | 2.6 | 0.00 | 0.00 | 0.00 | 67 | 1008.8 |
| 20260505001020 | 78 | 227 | 1.7 | 2.6 | 0.00 | 0.00 | 0.00 | 67 | 1008.8 |
| 20260505000517 | 78 | 37 | 1.7 | 1.7 | 0.00 | 0.00 | 0.00 | 67 | 1008.7 |
| 20260505000015 | 78 | 64 | 3.5 | 4.3 | 0.00 | 0.00 | 0.00 | 66 | 1008.8 |
| 20260504235511 | 78 | 343 | 2.6 | 2.6 | 0.00 | 0.00 | 0.00 | 66 | 1008.7 |
| 20260504235008 | 79 | 106 | 2.6 | 2.6 | 0.00 | 0.00 | 0.00 | 66 | 1009.0 |
| 20260504234505 | 80 | 268 | 3.5 | 5.2 | 0.00 | 0.00 | 0.00 | 64 | 1009.1 |
| 20260504234002 | 79 | 91 | 2.6 | 4.3 | 0.00 | 0.00 | 0.00 | 65 | 1009.1 |
| 20260504233457 | 79 | 93 | 1.7 | 1.7 | 0.00 | 0.00 | 0.00 | 65 | 1009.2 |
| 20260504232954 | 79 | 217 | 2.6 | 2.6 | 0.00 | 0.00 | 0.00 | 65 | 1008.9 |
| 20260504232451 | 79 | 31 | 5.2 | 7.8 | 0.00 | 0.00 | 0.00 | 64 | 1009.3 |
| 20260504231949 | 79 | 55 | 4.3 | 6.1 | 0.00 | 0.00 | 0.00 | 64 | 1009.4 |
| 20260504231445 | 79 | 87 | 2.6 | 2.6 | 0.00 | 0.00 | 0.00 | 64 | 1009.6 |
| 20260504230941 | 79 | 57 | 2.6 | 2.6 | 0.00 | 0.00 | 0.00 | 65 | 1009.2 |
| 20260504230438 | 79 | 254 | 1.7 | 2.6 | 0.00 | 0.00 | 0.00 | 64 | 1009.4 |
| 20260504225937 | 79 | 168 | 1.7 | 1.7 | 0.00 | 0.00 | 0.00 | 65 | 1009.5 |
| 20260504225434 | 80 | 161 | 2.6 | 4.3 | 0.00 | 0.00 | 0.00 | 64 | 1009.5 |
| 20260504224931 | 80 | 143 | 2.6 | 2.6 | 0.00 | 0.00 | 0.00 | 63 | 1009.7 |
| 20260504224427 | 80 | 181 | 1.7 | 1.7 | 0.00 | 0.00 | 0.00 | 64 | 1009.9 |
| 20260504223925 | 80 | 189 | 1.7 | 1.7 | 0.00 | 0.00 | 0.00 | 63 | 1009.7 |
| 20260504223420 | 80 | 142 | 2.6 | 2.6 | 0.00 | 0.00 | 0.00 | 63 | 1009.8 |
| 20260504222916 | 80 | 224 | 1.7 | 1.7 | 0.00 | 0.00 | 0.00 | 63 | 1009.8 |
| 20260504222414 | 80 | 282 | 2.6 | 2.6 | 0.00 | 0.00 | 0.00 | 64 | 1010.1 |
| 20260504221912 | 79 | 212 | 1.7 | 1.7 | 0.00 | 0.00 | 0.00 | 65 | 1010.1 |
| 20260504221408 | 79 | 32 | 3.5 | 5.2 | 0.00 | 0.00 | 0.00 | 64 | 1010.1 |
| 20260504220905 | 79 | 75 | 2.6 | 4.3 | 0.00 | 0.00 | 0.00 | 64 | 1010.2 |
| 20260504220402 | 79 | 68 | 2.6 | 4.3 | 0.00 | 0.00 | 0.00 | 64 | 1010.2 |
| 20260504215859 | 80 | 214 | 2.6 | 4.3 | 0.00 | 0.00 | 0.00 | 63 | 1010.1 |
| 20260504215355 | 80 | 311 | 2.6 | 2.6 | 0.00 | 0.00 | 0.00 | 63 | 1009.9 |
| 20260504214852 | 79 | 68 | 2.6 | 2.6 | 0.00 | 0.00 | 0.00 | 65 | 1010.2 |
| 20260504214348 | 79 | 40 | 4.3 | 5.2 | 0.00 | 0.00 | 0.00 | 63 | 1010.0 |
| 20260504213845 | 80 | 276 | 3.5 | 7.0 | 0.00 | 0.00 | 0.00 | 64 | 1010.4 |
| 20260504213341 | 80 | 116 | 2.6 | 2.6 | 0.00 | 0.00 | 0.00 | 64 | 1010.1 |
| 20260504212839 | 79 | 184 | 0.9 | 1.7 | 0.00 | 0.00 | 0.00 | 65 | 1010.2 |
| 20260504212334 | 79 | 45 | 3.5 | 5.2 | 0.00 | 0.00 | 0.00 | 64 | 1010.1 |
| 20260504211833 | 79 | 56 | 5.2 | 6.1 | 0.00 | 0.00 | 0.00 | 64 | 1010.5 |
| 20260504211328 | 79 | 132 | 2.6 | 2.6 | 0.00 | 0.00 | 0.00 | 64 | 1010.4 |
| 20260504210826 | 79 | 127 | 2.6 | 2.6 | 0.00 | 0.00 | 0.00 | 64 | 1010.4 |
| 20260504210323 | 80 | 33 | 2.6 | 2.6 | 0.00 | 0.00 | 0.00 | 62 | 1010.7 |
| 20260504205820 | 80 | 105 | 2.6 | 4.3 | 0.00 | 0.00 | 0.00 | 63 | 1010.7 |
| 20260504205318 | 80 | 69 | 3.5 | 4.3 | 0.00 | 0.00 | 0.00 | 62 | 1011.1 |
| 20260504204816 | 80 | 92 | 4.3 | 6.1 | 0.00 | 0.00 | 0.00 | 62 | 1010.9 |
| 20260504204314 | 80 | 148 | 2.6 | 2.6 | 0.00 | 0.00 | 0.00 | 63 | 1010.8 |
| 20260504203813 | 80 | 87 | 2.6 | 2.6 | 0.00 | 0.00 | 0.00 | 63 | 1011.2 |
| 20260504203309 | 79 | 115 | 4.3 | 5.2 | 0.00 | 0.00 | 0.00 | 63 | 1011.2 |
| 20260504202804 | 80 | 140 | 1.7 | 1.7 | 0.00 | 0.00 | 0.00 | 62 | 1011.5 |
| 20260504202304 | 80 | 96 | 2.6 | 2.6 | 0.00 | 0.00 | 0.00 | 63 | 1011.5 |
| 20260504201759 | 80 | 79 | 2.6 | 2.6 | 0.00 | 0.00 | 0.00 | 63 | 1011.4 |
| 20260504201256 | 80 | 79 | 2.6 | 4.3 | 0.00 | 0.00 | 0.00 | 63 | 1011.7 |
| 20260504200754 | 80 | 311 | 2.6 | 2.6 | 0.00 | 0.00 | 0.00 | 63 | 1011.3 |
| 20260504200249 | 79 | 59 | 3.5 | 4.3 | 0.00 | 0.00 | 0.00 | 63 | 1011.8 |
| 20260504195746 | 81 | 55 | 4.3 | 5.2 | 0.00 | 0.00 | 0.00 | 60 | 1011.8 |
| 20260504195242 | 80 | 90 | 2.6 | 2.6 | 0.00 | 0.00 | 0.00 | 63 | 1011.8 |
| 20260504194739 | 80 | 94 | 2.6 | 2.6 | 0.00 | 0.00 | 0.00 | 62 | 1011.7 |
| 20260504194235 | 80 | 29 | 4.3 | 5.2 | 0.00 | 0.00 | 0.00 | 62 | 1011.9 |
| 20260504193732 | 81 | 220 | 3.5 | 7.0 | 0.00 | 0.00 | 0.00 | 61 | 1011.7 |
| 20260504193229 | 81 | 126 | 2.6 | 2.6 | 0.00 | 0.00 | 0.00 | 62 | 1011.7 |
| 20260504192728 | 80 | 98 | 5.2 | 6.1 | 0.00 | 0.00 | 0.00 | 60 | 1011.8 |
| 20260504192225 | 80 | 53 | 2.6 | 2.6 | 0.00 | 0.00 | 0.00 | 61 | 1011.8 |
| 20260504191724 | 80 | 78 | 2.6 | 2.6 | 0.00 | 0.00 | 0.00 | 61 | 1012.1 |
| 20260504191220 | 80 | 15 | 3.5 | 4.3 | 0.00 | 0.00 | 0.00 | 61 | 1012.2 |
| 20260504190716 | 80 | 72 | 2.6 | 5.2 | 0.00 | 0.00 | 0.00 | 62 | 1012.3 |
| 20260504190212 | 80 | 31 | 2.6 | 2.6 | 0.00 | 0.00 | 0.00 | 61 | 1012.0 |
| 20260504185709 | 79 | 174 | 1.7 | 1.7 | 0.00 | 0.00 | 0.00 | 62 | 1012.3 |
| 20260504185205 | 79 | 70 | 3.5 | 5.2 | 0.00 | 0.00 | 0.00 | 63 | 1012.4 |
| 20260504184702 | 79 | 101 | 4.3 | 5.2 | 0.00 | 0.00 | 0.00 | 62 | 1012.5 |
| 20260504184157 | 79 | 65 | 4.3 | 6.1 | 0.00 | 0.00 | 0.00 | 63 | 1012.7 |
| 20260504183654 | 78 | 127 | 3.5 | 4.3 | 0.00 | 0.00 | 0.00 | 64 | 1012.6 |
| 20260504183151 | 78 | 89 | 2.6 | 2.6 | 0.00 | 0.00 | 0.00 | 63 | 1012.7 |
| 20260504182649 | 79 | 105 | 2.6 | 2.6 | 0.00 | 0.00 | 0.00 | 62 | 1013.0 |
| 20260504182146 | 79 | 77 | 2.6 | 2.6 | 0.00 | 0.00 | 0.00 | 63 | 1012.9 |
| 20260504181643 | 78 | 78 | 3.5 | 4.3 | 0.00 | 0.00 | 0.00 | 63 | 1013.2 |
| 20260504181141 | 78 | 110 | 3.5 | 5.2 | 0.00 | 0.00 | 0.00 | 64 | 1013.0 |
| 20260504180640 | 78 | 309 | 3.5 | 5.2 | 0.00 | 0.00 | 0.00 | 65 | 1013.1 |
| 20260504180138 | 77 | 19 | 1.7 | 1.7 | 0.00 | 0.00 | 0.00 | 66 | 1013.1 |
| 20260504175635 | 78 | 15 | 2.6 | 4.3 | 0.00 | 0.00 | 0.00 | 64 | 1012.9 |
| 20260504175132 | 77 | 78 | 4.3 | 5.2 | 0.00 | 0.00 | 0.00 | 65 | 1013.1 |
| 20260504174630 | 77 | 107 | 2.6 | 4.3 | 0.00 | 0.00 | 0.00 | 64 | 1013.3 |
| 20260504174126 | 78 | 17 | 1.7 | 2.6 | 0.00 | 0.00 | 0.00 | 65 | 1013.2 |
| 20260504173624 | 78 | 192 | 0.9 | 1.7 | 0.00 | 0.00 | 0.00 | 65 | 1013.5 |
| 20260504173121 | 76 | 55 | 3.5 | 4.3 | 0.00 | 0.00 | 0.00 | 67 | 1013.5 |
| 20260504172617 | 75 | 110 | 3.5 | 4.3 | 0.00 | 0.00 | 0.00 | 68 | 1013.6 |
| 20260504172114 | 76 | 100 | 2.6 | 2.6 | 0.00 | 0.00 | 0.00 | 69 | 1013.4 |
| 20260504171610 | 75 | 89 | 2.6 | 2.6 | 0.00 | 0.00 | 0.00 | 68 | 1013.5 |
| 20260504171108 | 73 | 63 | 2.6 | 5.2 | 0.00 | 0.00 | 0.00 | 72 | 1013.7 |
| 20260504170603 | 73 | 347 | 2.6 | 4.3 | 0.00 | 0.00 | 0.00 | 72 | 1013.8 |
| 20260504150947 | 68 | 93 | 2.6 | 2.6 | 0.00 | 0.00 | 0.00 | 82 | 1014.7 |
| 20260504150444 | 68 | 133 | 2.6 | 2.6 | 0.00 | 0.00 | 0.00 | 82 | 1014.9 |
| 20260504140910 | 65 | 53 | 1.7 | 1.7 | 0.00 | 0.00 | 0.00 | 84 | 1014.7 |
| 20260504140406 | 65 | 134 | 2.6 | 2.6 | 0.00 | 0.00 | 0.00 | 84 | 1014.6 |
| 20260504130331 | 62 | 231 | 0.9 | 0.9 | 0.00 | 0.00 | 0.00 | 87 | 1014.8 |
| 20260504120254 | 60 | 246 | 0.9 | 0.9 | 0.00 | 0.00 | 0.00 | 90 | 1014.6 |
| 20260504110218 | 59 | 246 | 0.0 | 0.0 | 0.00 | 0.00 | 0.00 | 89 | 1014.2 |
| 20260504100142 | 59 | 247 | 0.0 | 0.9 | 0.00 | 0.00 | 0.00 | 88 | 1014.5 |
| 20260504090105 | 60 | 245 | 0.9 | 0.9 | 0.00 | 0.00 | 0.00 | 86 | 1014.8 |
| 20260504081535 | 61 | 243 | 0.0 | 0.9 | 0.00 | 0.00 | 0.00 | 84 | 1015.3 |
| 20260504081031 | 61 | 254 | 0.9 | 0.9 | 0.00 | 0.00 | 0.00 | 84 | 1015.2 |
| 20260504080527 | 61 | 242 | 0.0 | 0.9 | 0.00 | 0.00 | 0.00 | 83 | 1015.2 |
| 20260504050340 | 64 | 247 | 0.9 | 1.7 | 0.00 | 0.00 | 0.00 | 72 | 1017.3 |
| 20260504045838 | 64 | 244 | 0.9 | 1.7 | 0.00 | 0.00 | 0.00 | 72 | 1017.3 |
| 20260504045332 | 64 | 264 | 2.6 | 4.3 | 0.00 | 0.00 | 0.00 | 72 | 1017.1 |
| 20260504044829 | 64 | 242 | 1.7 | 1.7 | 0.00 | 0.00 | 0.00 | 71 | 1017.2 |
| 20260504044327 | 64 | 258 | 2.6 | 4.3 | 0.00 | 0.00 | 0.00 | 71 | 1017.3 |
| 20260504043824 | 65 | 310 | 0.9 | 1.7 | 0.00 | 0.00 | 0.00 | 70 | 1017.3 |
| 20260504043321 | 65 | 255 | 1.7 | 1.7 | 0.00 | 0.00 | 0.00 | 70 | 1017.4 |
| 20260504042818 | 65 | 239 | 0.9 | 0.9 | 0.00 | 0.00 | 0.00 | 70 | 1017.0 |
| 20260504042314 | 65 | 271 | 1.7 | 1.7 | 0.00 | 0.00 | 0.00 | 69 | 1017.3 |
| 20260504041811 | 65 | 226 | 0.9 | 1.7 | 0.00 | 0.00 | 0.00 | 69 | 1017.5 |
| 20260504041307 | 65 | 247 | 0.9 | 0.9 | 0.00 | 0.00 | 0.00 | 69 | 1017.2 |
| 20260504040803 | 65 | 242 | 0.9 | 1.7 | 0.00 | 0.00 | 0.00 | 68 | 1017.1 |
| 20260504040301 | 65 | 281 | 2.6 | 4.3 | 0.00 | 0.00 | 0.00 | 69 | 1017.5 |
| 20260504035757 | 65 | 249 | 0.9 | 0.9 | 0.00 | 0.00 | 0.00 | 69 | 1017.6 |
| 20260504035254 | 64 | 244 | 0.9 | 1.7 | 0.00 | 0.00 | 0.00 | 69 | 1017.4 |
| 20260504034751 | 64 | 251 | 0.9 | 0.9 | 0.00 | 0.00 | 0.00 | 68 | 1017.3 |
| 20260504034249 | 64 | 254 | 0.0 | 0.9 | 0.00 | 0.00 | 0.00 | 68 | 1017.5 |
| 20260504033746 | 64 | 256 | 0.0 | 0.9 | 0.00 | 0.00 | 0.00 | 68 | 1017.2 |
| 20260504033243 | 64 | 259 | 0.9 | 1.7 | 0.00 | 0.00 | 0.00 | 68 | 1017.2 |
| 20260504032740 | 63 | 310 | 1.7 | 5.2 | 0.00 | 0.00 | 0.00 | 68 | 1017.5 |
| 20260504032237 | 63 | 252 | 0.9 | 0.9 | 0.00 | 0.00 | 0.00 | 68 | 1017.2 |
| 20260504031734 | 61 | 249 | 0.0 | 0.9 | 0.00 | 0.00 | 0.00 | 71 | 1017.3 |
| 20260504031232 | 60 | 249 | 0.0 | 0.0 | 0.00 | 0.00 | 0.00 | 76 | 1017.0 |
| 20260504030727 | 60 | 248 | 0.0 | 0.0 | 0.00 | 0.00 | 0.00 | 76 | 1017.1 |
| 20260504030225 | 61 | 248 | 0.0 | 0.0 | 0.00 | 0.00 | 0.00 | 75 | 1017.1 |
| 20260504025721 | 61 | 248 | 0.0 | 0.0 | 0.00 | 0.00 | 0.00 | 74 | 1017.2 |
| 20260504025218 | 61 | 248 | 0.0 | 0.0 | 0.00 | 0.00 | 0.00 | 71 | 1017.1 |
| 20260504024715 | 61 | 248 | 0.0 | 0.0 | 0.00 | 0.00 | 0.00 | 72 | 1017.1 |
| 20260504024211 | 61 | 248 | 0.0 | 0.0 | 0.00 | 0.00 | 0.00 | 72 | 1017.2 |
| 20260504023708 | 62 | 248 | 0.0 | 0.0 | 0.00 | 0.00 | 0.00 | 72 | 1017.2 |
| 20260504023204 | 62 | 248 | 0.0 | 0.0 | 0.00 | 0.00 | 0.00 | 70 | 1017.2 |
| 20260504022701 | 62 | 248 | 0.0 | 0.0 | 0.00 | 0.00 | 0.00 | 69 | 1017.2 |
| 20260504022156 | 62 | 248 | 0.0 | 0.0 | 0.00 | 0.00 | 0.00 | 68 | 1017.2 |
| 20260504021655 | 63 | 248 | 0.0 | 0.0 | 0.00 | 0.00 | 0.00 | 67 | 1017.2 |
| 20260504021151 | 63 | 248 | 0.0 | 0.0 | 0.00 | 0.00 | 0.00 | 68 | 1017.1 |
| 20260504020648 | 63 | 248 | 0.0 | 0.0 | 0.00 | 0.00 | 0.00 | 66 | 1017.1 |
| 20260504020144 | 64 | 248 | 0.0 | 0.0 | 0.00 | 0.00 | 0.00 | 64 | 1017.1 |
| 20260504015641 | 65 | 248 | 0.0 | 0.0 | 0.00 | 0.00 | 0.00 | 62 | 1017.2 |
| 20260504015137 | 65 | 248 | 0.0 | 0.0 | 0.00 | 0.00 | 0.00 | 62 | 1017.3 |
| 20260504014633 | 66 | 248 | 0.0 | 0.0 | 0.00 | 0.00 | 0.00 | 60 | 1016.9 |
| 20260504014130 | 66 | 248 | 0.0 | 0.0 | 0.00 | 0.00 | 0.00 | 59 | 1016.9 |
| 20260504013628 | 67 | 248 | 0.0 | 0.0 | 0.00 | 0.00 | 0.00 | 57 | 1017.1 |
| 20260504013125 | 67 | 248 | 0.0 | 0.9 | 0.00 | 0.00 | 0.00 | 56 | 1016.6 |
| 20260504012622 | 67 | 248 | 0.0 | 0.0 | 0.00 | 0.00 | 0.00 | 56 | 1016.6 |
| 20260504012120 | 67 | 248 | 0.0 | 0.0 | 0.00 | 0.00 | 0.00 | 55 | 1016.9 |
| 20260504011616 | 68 | 248 | 0.0 | 0.0 | 0.00 | 0.00 | 0.00 | 55 | 1017.0 |
| 20260504011113 | 68 | 248 | 0.0 | 0.0 | 0.00 | 0.00 | 0.00 | 54 | 1016.7 |
| 20260504010608 | 69 | 248 | 0.0 | 0.0 | 0.00 | 0.00 | 0.00 | 53 | 1016.3 |
| 20260504010105 | 70 | 240 | 0.0 | 0.0 | 0.00 | 0.00 | 0.00 | 51 | 1016.3 |
| 20260504005601 | 70 | 253 | 0.9 | 0.9 | 0.00 | 0.00 | 0.00 | 50 | 1016.4 |
| 20260504005059 | 71 | 244 | 0.0 | 0.9 | 0.00 | 0.00 | 0.00 | 49 | 1016.3 |
| 20260504004556 | 71 | 244 | 0.0 | 0.9 | 0.00 | 0.00 | 0.00 | 49 | 1016.4 |